COSMOS 2034

Satellite information

Favourite Embed

Satellite Type and Status

PAYLOADIN ORBIT

Key statistics

Satellite COSMOS 2034 at a glance.

Uptime

13072

Days in orbit

Revolutions

≈ 13.7

Per day

Orbit

LEO

Low Earth Orbit

Inclination

82.9

Latest

Satellite identification and parameters

Extended collection of information and parameters for COSMOS 2034.

Object identification

Identified? True

Debris? False

Object name: COSMOS 2034

International designator: 1989-059A

Object number (NORAD): 20149

Object ID (CCSDS): 20149

Country: COMMONWEALTH OF INDEPENDENT STATES (CIS)

Current information (Y/N): Y

RCS size: LARGE

Orbital parameters

Period: 104.83 minutes

Inclination: 82.9399 deg

SMA: 7364.619 km

Apoapsis: 1008.53 km

Periapsis: 964.438 km

RAAN: 154.6846 deg

Eccentricy: 0.0029935

Argument of periapsis: 294.9701 deg

Mean anomaly: 182.6156 deg

Mean motion: 13.73654054 rev/day

Mean motion (dot): 0.00000079 rev/day2

B* drag term: 0.000068934 1/REarth

Two-line elements (TLE)

Creation date: May 8, 2025, 3:01 a.m.

Reference frame: TEME

Reference center: EARTH

Epoch: May 7, 2025, 2:02 p.m. UTC

TLE line 0: 0 COSMOS 2034

TLE line 1: 1 20149U 89059A 25127.58490095 .00000079 00000-0 68934-4 0 9994

TLE line 2: 2 20149 82.9399 154.6846 0029935 294.9701 182.6156 13.73654054793424

Live tracking on map

Real-time ground track for satellite COSMOS 2034.

In-orbit conjunctions

A list of the most updated potential collisions computed for object COSMOS 2034.

Target Orbit TCA Probability of collision Miss distance Type
SL-8 R/B LEO 2024-10-13 18:23:51 0.0002252392 141.0 (m) ROCKET BODY
FENGYUN 1C DEB SSO 2024-07-06 15:46:21 0.0002849212 720.0 (m) DEBRIS

Associated space launch

Navigation satellite providing location information for the Tsiklon-B navigation system

COSMOS 2034 was lifted into orbit during the mission ‘Kosmos-3M | Parus 67’, on board a Kosmos-3M space rocket.

The launch took place on July 25, 1989, 7:48 a.m. from 133/3 (133L).

For more information about the launch, click the button.

Launch to space Kosmos-3M | Parus 67
Kosmos-3M | Parus 67

Agency: N/A

Status: Launch Successful

Launch date: July 25, 1989, 7:48 a.m. UTC

Rocket: Kosmos-3M

Launch pad: 133/3 (133L)

Location: Plesetsk Cosmodrome, Russian Federation

...

Latest news about this satellite

There are no fresh news available about this satellite. Check back as we update our databases every day.


Newsletter sign-up

Weekly statistics, charts and insights to help you stay on top of the space industry.